SCP
0 0 0 0 0 0 0 0 0 0 0 0 0 0 0 0 0 0 0 0 0 0 0 0 0 0 0 0 0 0 0 0 0 0 0 0 0 0 0 0 0 0 0
0 0 0 0 0 0 0 0 0 0 0 0 0 0 0 0 0 0 0 0 0 0 0 0 0 0 0 0 0 0 0 0 0 0 0 0 0 0 0 0 0 0 0
0 0 0 0 0 0 0 0 0 0 0 0 0 0 0 0 0 0 0 0 0 0 0 0 0 0 0 0 0 0 0 0 0 0 0 0 0 0 0 0 0 0 0
0 0 0 0 0 0 0 0 0 0 0 0 0 0 0 0 0 0 0 0 0 0 0 0 0 0 0 0 0 0 0 0 0 0 0 0 0 0 0 0 0 0 0
-0 -0 -0 0 0 0 0 0 0 0 0 0 0 0 0 0 0 0 0 0 0 0 0 0 0 0 0 0 0 0 0 0 0 0 0 0 0 0 0 0 0 0 0
-0 -1 -0 0 0 0 0 0 0 0 0 0 0 0 0 0 0 0 0 0 0 0 0 0 0 0 0 0 0 0 0 0 0 0 0 0 0 0 0 0 0 0 0
-0 -0 -0 0 0 0 0 0 0 0 0 0 0 0 0 0 0 0 0 0 0 0 0 0 0 0 0 0 0 0 0 0 0 0 0 0 0 0 0 0 0 0 0
0 0 0 0 0 0 0 0 0 0 0 0 0 0 0 0 0 0 0 0 0 0 0 0 0 0 0 0 0 0 0 0 0 0 0 0 0 0 0 0 0 0 0
0 0 0 0 0 0 0 0 0 0 0 0 0 0 0 0 0 0 0 0 0 0 0 0 0 0 0 0 0 0 0 0 0 0 0 0 0 0 0 0 0 0 0
0 0 0 0 0 0 0 0 0 0 0 0 0 0 0 0 0 0 0 0 0 0 0 0 0 0 0 0 0 0 0 0 0 0 0 0 0 0 0 0 0 0 0
0 0 0 0 0 0 0 0 0 0 0 0 0 0 0 0 0 0 0 0 0 0 0 0 0 0 0 0 0 0 0 0 0 0 0 0 0 0 0 0 0 0 0
0 0 0 0 0 0 0 0 0 0 0 0 0 0 0 0 0 0 0 0 0 0 0 0 0 0 0 0 0 0 0 0 0 0 0 0 0 0 0 0 0 0 0
0 0 0 0 0 0 0 0 0 0 0 0 0 0 0 0 0 0 0 0 0 0 0 0 0 0 0 0 0 0 0 0 0 0 0 0 0 0 0 0 0 0 0
0 0 0 0 0 0 0 0 0 0 0 0 0 0 0 0 0 0 0 0 0 0 0 0 0 0 0 0 0 0 0 0 0 0 0 0 0 0 0 0 0 0 0
0 0 0 0 0 0 0 0 0 0 0 0 0 0 0 0 0 0 0 0 0 0 0 0 0 0 0 0 0 0 0 0 0 0 0 0 0 0 0 0 0 0 0
0 0 0 0 0 0 0 0 0 0 0 0 0 0 0 0 0 0 0 0 0 0 0 0 0 0 0 0 0 0 0 0 0 0 0 0 0 0 0 0 0 0 0
0 0 0 0 0 0 0 0 0 0 0 0 0 0 0 0 0 0 0 0 0 0 0 0 0 0 0 0 0 0 0 0 0 0 0 0 0 0 0 0 0 0 0
0 0 0 0 0 0 0 0 0 0 0 0 0 0 0 0 0 0 0 0 0 0 0 0 0 0 0 0 0 0 0 0 0 0 0 0 0 0 0 0 0 0 0
0 0 0 0 0 0 0 0 0 0 0 0 0 0 0 0 0 0 0 0 0 0 0 0 0 0 0 0 0 0 0 0 0 0 0 0 0 0 0 0 0 0 0
0 0 0 0 0 0 0 0 0 0 0 0 0 0 0 0 0 0 0 0 0 0 0 0 0 0 0 0 0 0 0 0 0 0 0 0 0 0 0 0 0 0 0
0 0 0 0 0 0 0 0 0 0 0 0 0 0 0 0 0 0 0 0 0 0 0 0 0 0 0 0 0 0 0 0 0 0 0 0 0 0 0 0 0 0 0
0 0 0 0 0 0 0 0 0 0 0 0 0 0 0 0 0 0 0 0 0 0 0 0 0 0 0 0 0 0 0 0 0 0 0 0 0 0 0 0 0 0 0
0 0 0 0 0 0 0 0 0 0 0 0 0 0 0 0 0 0 0 0 0 0 0 0 0 0 0 0 0 0 0 0 0 0 0 0 0 0 0 0 0 0 0
0 0 0 0 0 0 0 0 0 0 0 0 0 0 0 0 0 0 0 0 0 0 0 0 0 0 0 0 0 0 0 0 0 0 0 0 0 0 0 0 0 0 0
0 0 0 0 0 0 0 0 0 0 0 0 0 0 0 0 0 0 0 0 0 0 0 0 0 0 0 0 0 0 0 0 0 0 0 0 0 0 0 0 0 0 0
0 0 0 0 0 0 0 0 0 0 0 0 0 0 0 0 0 0 0 0 0 0 0 0 0 0 0 0 0 0 0 0 0 0 0 0 0 0 0 0 0 0 0
Wind_Speed
1 1 1 1 1 1 1 1 1 1 1 1 1 2 2 3 2 2 2 5 5 5 6 7 8 8 7 6 6 6 6 5 5 6 7 8 8 8 8 8 8 8 9
1 1 1 1 1 1 1 1 1 1 0 0 0 1 2 2 2 2 2 3 4 5 5 6 7 7 7 7 6 6 6 6 5 5 6 7 8 8 8 8 8 8 8
2 2 1 1 1 1 2 1 1 1 0 0 0 1 1 1 2 2 2 2 2 4 5 5 6 6 6 7 7 7 7 6 6 6 5 6 7 8 8 8 8 8 8
2 2 2 1 1 1 2 2 1 1 0 0 0 1 1 1 2 2 2 2 2 2 4 5 6 6 6 7 7 8 8 7 7 7 6 6 6 7 7 8 9 9 9
2 2 2 2 2 2 1 2 1 1 1 0 0 0 1 1 1 2 2 2 2 2 2 4 7 7 8 8 8 8 8 8 8 7 7 7 6 6 7 7 8 9 9
2 2 2 2 2 2 1 1 2 1 1 1 0 1 1 1 1 1 2 2 2 3 3 3 3 4 7 7 8 8 9 9 8 8 8 7 7 7 7 8 8 9 9
2 2 1 1 2 2 2 2 2 1 1 1 1 1 2 1 1 1 1 1 2 2 2 3 3 3 3 6 7 8 9 9 9 9 8 8 7 7 7 8 8 9 9
2 2 2 2 2 2 2 2 2 1 0 1 2 1 1 2 2 1 1 1 2 2 2 3 3 3 3 3 5 8 8 8 8 8 8 7 7 7 7 8 8 8 9
1 2 2 2 2 2 2 2 3 3 1 0 1 2 2 2 2 2 1 1 1 1 2 2 3 4 4 4 4 6 8 7 8 9 8 7 7 7 7 7 8 8 9
2 2 2 2 3 2 3 3 3 2 2 1 1 1 1 2 2 1 2 1 2 2 2 2 3 3 4 4 4 6 7 7 8 9 8 8 8 7 7 8 8 8 9
1 2 2 2 2 2 2 3 2 2 2 3 2 2 2 1 1 2 2 2 2 2 2 3 3 2 3 3 3 5 6 6 6 7 8 8 8 8 7 7 8 8 8
1 2 2 2 2 2 2 3 3 3 3 3 3 3 3 3 3 3 3 2 2 2 2 2 3 3 3 3 5 6 6 6 6 6 7 7 8 8 8 8 8 9 9
2 3 2 2 2 2 3 3 3 3 3 3 3 3 3 3 2 3 3 2 2 2 2 2 2 2 2 2 3 5 6 6 6 6 6 7 7 7 8 8 8 8 9
3 3 3 3 3 3 3 3 2 3 2 3 3 3 3 3 3 3 3 3 1 2 2 3 1 2 2 2 4 5 4 5 6 7 7 7 7 8 8 8 7 7 8
3 3 3 3 2 3 3 2 2 3 2 3 3 3 3 3 3 3 3 3 3 2 3 3 2 2 2 2 3 3 3 5 6 7 7 7 7 8 8 8 8 8 7
2 2 2 3 2 2 3 3 2 2 2 2 2 2 2 2 2 2 2 2 3 3 3 2 3 2 2 2 2 3 3 5 5 6 7 7 7 8 8 8 8 8 7
2 2 2 2 2 3 3 3 3 3 3 3 2 2 2 2 1 2 2 2 3 3 4 3 2 2 2 3 2 2 2 3 3 5 6 6 7 8 8 8 8 8 8
2 2 2 2 2 2 3 4 4 3 3 3 3 2 2 2 2 2 2 3 3 3 4 4 2 2 3 3 2 2 2 2 2 4 5 6 7 7 8 8 8 8 8
2 2 2 2 3 2 3 3 4 4 4 4 3 3 3 3 3 2 3 3 2 2 3 3 3 2 2 1 1 2 2 1 2 3 4 5 5 6 6 7 7 8 8
2 2 3 3 3 3 3 3 3 3 3 3 3 3 4 4 4 4 3 3 2 2 2 2 2 2 2 1 1 2 2 1 2 2 3 3 4 5 6 7 7 7 7
3 3 3 3 3 3 3 3 3 3 3 3 3 3 4 4 5 4 3 3 3 2 2 2 2 2 2 1 2 2 2 2 2 2 2 2 2 3 3 5 6 7 7
3 2 3 3 3 3 3 4 4 3 3 3 3 3 3 3 4 5 5 5 4 4 4 3 3 3 3 3 2 2 2 1 2 1 1 2 2 3 3 3 5 7 8
2 2 3 3 4 4 4 4 4 3 3 3 3 3 3 3 3 3 4 4 5 5 6 4 4 4 4 4 3 3 3 3 3 2 1 3 2 3 3 3 6 7 8
2 3 3 3 3 4 4 4 3 2 2 3 3 3 3 3 3 3 3 2 3 4 5 4 4 5 4 4 4 4 3 3 3 2 2 3 3 3 3 3 4 6 7
3 3 3 3 3 4 4 4 4 2 2 3 3 3 3 4 4 3 3 3 3 3 4 4 5 4 3 3 3 3 2 2 3 2 2 3 2 3 3 3 3 4 5
3 3 3 3 3 4 3 4 4 3 2 2 2 2 4 4 4 3 4 3 4 4 3 2 2 2 2 2 3 4 4 3 3 2 2 2 2 2 2 2 2 2 3
Wind_Direction
155 144 134 126 121 114 119 95 86 103 114 147 171 182 204 199 192 200 214 216 219 216 218 219 217 211 206 205 205 208 208 207 206 203 204 209 209 206 211 212 212 214 214
163 154 149 141 143 140 135 129 134 131 139 163 219 242 227 206 200 207 214 220 214 212 216 218 215 214 214 215 216 214 211 207 209 209 212 214 214 211 212 214 214 217 218
166 164 162 167 179 148 127 111 102 91 134 149 223 254 233 221 208 210 212 212 221 221 216 216 218 220 219 219 219 217 214 213 214 216 216 216 218 216 215 216 216 217 219
171 161 165 188 175 140 133 129 127 119 123 124 263 287 259 237 224 216 216 219 221 228 226 224 223 223 219 219 220 220 218 217 217 218 223 224 222 221 219 218 218 216 217
172 165 172 179 163 146 145 153 133 148 150 168 225 282 296 269 251 239 230 231 230 224 225 237 235 229 223 226 227 225 223 221 219 218 224 230 230 228 223 221 222 219 218
160 148 158 160 151 139 142 148 142 131 155 168 125 10 340 296 270 252 245 243 237 232 228 234 239 243 237 234 233 232 230 226 221 220 224 233 236 232 228 227 225 223 222
156 148 155 153 149 158 177 165 145 132 127 120 94 17 349 340 293 268 251 242 247 246 238 232 231 235 245 246 243 240 238 235 229 224 226 228 231 230 228 229 227 224 222
164 170 166 173 170 162 166 161 145 136 140 129 132 108 9 344 317 292 266 238 254 251 250 246 241 237 238 237 246 244 241 242 238 231 226 223 223 225 227 228 228 226 220
195 187 178 174 181 175 180 185 173 166 177 191 162 151 158 216 288 312 296 274 266 244 250 253 242 236 233 229 236 242 239 239 237 235 232 226 222 223 225 233 232 228 226
210 199 183 179 187 185 187 199 181 179 170 194 203 200 184 168 176 289 310 301 289 263 259 256 258 243 234 227 228 233 237 236 235 235 235 231 224 224 226 232 235 234 231
233 212 196 183 190 193 195 198 187 187 188 196 195 186 184 182 193 191 262 300 308 281 263 258 257 251 242 231 228 233 235 236 238 238 236 233 228 228 230 234 236 238 237
251 238 209 199 199 198 201 203 198 197 202 204 207 197 185 185 195 192 218 262 283 286 280 265 253 247 243 233 235 235 233 232 234 237 236 234 229 229 233 235 237 240 241
232 237 223 213 210 208 206 198 195 208 203 204 212 214 209 211 186 179 192 231 261 284 288 267 246 247 247 240 243 243 233 230 231 231 230 232 232 230 232 235 237 241 244
224 223 213 215 221 213 208 199 199 215 209 213 222 214 210 218 201 194 189 185 242 277 269 265 263 243 251 251 251 249 243 240 237 232 228 228 232 232 231 232 234 241 244
223 215 209 210 216 214 210 200 214 227 215 217 222 223 224 226 213 212 200 192 193 241 264 257 254 259 261 254 259 240 243 246 243 235 231 230 232 232 232 231 233 237 241
214 217 218 216 220 221 209 198 215 230 218 229 218 215 225 228 215 203 202 206 204 210 238 245 251 267 276 276 264 242 246 255 248 242 233 228 227 229 229 228 229 232 236
209 214 220 221 227 230 216 207 221 218 216 232 225 214 227 212 208 205 198 202 208 204 228 257 253 258 251 265 276 256 252 246 248 242 236 230 229 229 230 231 231 232 233
218 210 207 225 238 234 216 211 219 216 213 225 228 214 224 211 215 216 207 213 216 212 215 243 256 251 243 247 254 257 259 243 245 250 244 235 232 233 234 235 234 231 229
217 216 207 227 238 238 223 218 212 213 217 219 217 214 219 209 222 224 218 217 223 217 211 227 254 253 256 249 257 272 270 262 259 250 246 240 235 236 235 234 232 229 225
214 222 221 229 231 231 225 225 212 210 217 221 221 219 219 211 220 218 216 221 219 214 207 218 248 262 264 259 225 250 273 271 274 264 257 248 239 241 242 239 235 229 225
228 223 221 235 236 223 220 219 213 207 210 221 230 229 229 223 222 214 210 207 204 211 209 218 241 251 259 245 236 230 252 272 273 259 260 258 246 247 248 245 243 238 235
240 226 223 233 242 239 232 220 208 211 211 214 231 245 244 240 242 230 223 209 195 201 216 218 236 239 245 239 233 219 229 251 272 247 234 265 240 250 256 250 245 243 240
233 236 238 233 245 250 242 231 216 201 209 217 225 237 248 249 236 233 235 234 232 232 216 208 225 237 238 229 211 216 213 219 244 251 215 271 265 261 259 254 240 240 241
229 236 241 241 248 255 244 226 213 199 212 226 228 228 236 255 250 226 219 233 250 251 236 226 229 239 240 231 213 216 218 228 248 247 214 252 267 263 269 262 250 240 240
242 241 239 235 238 256 247 222 194 184 213 244 246 239 235 242 253 227 208 231 262 272 262 237 234 246 251 240 206 188 198 212 251 257 210 224 255 268 272 268 258 242 240
238 243 243 234 234 247 252 222 193 186 204 236 256 257 250 245 251 223 208 219 247 265 275 291 278 278 268 260 217 206 210 214 234 259 216 208 243 253 273 261 263 265 253